| time (UTC) | temp F | wind direction | speed knots | gust knots | rain 1hr in | rain 24hr in | rain mn in | humidity % | barometer mb |
| 20260506004541 | 55 | 0 | 0.0 | 7.0 | 0.00 | 0.00 | 0.00 | 44 | 1012.7 |
| 20260506003035 | 55 | 0 | 0.0 | 6.1 | 0.00 | 0.00 | 0.00 | 42 | 1012.7 |
| 20260506001542 | 56 | 0 | 0.0 | 8.7 | 0.00 | 0.00 | 0.00 | 41 | 1012.7 |
| 20260506000042 | 57 | 96 | 0.9 | 9.6 | 0.00 | 0.00 | 0.00 | 41 | 1012.6 |
| 20260505234601 | 56 | 96 | 0.0 | 8.7 | 0.00 | 0.00 | 0.00 | 44 | 1012.7 |
| 20260505233039 | 54 | 0 | 0.0 | 7.0 | 0.00 | 0.00 | 0.00 | 46 | 1012.8 |
| 20260505231536 | 54 | 96 | 0.0 | 8.7 | 0.00 | 0.00 | 0.00 | 45 | 1012.5 |
| 20260505230034 | 54 | 0 | 0.0 | 10.4 | 0.00 | 0.00 | 0.00 | 47 | 1012.4 |
| 20260505224542 | 55 | 0 | 0.0 | 7.8 | 0.00 | 0.00 | 0.00 | 45 | 1012.2 |
| 20260505223041 | 55 | 0 | 1.7 | 9.6 | 0.00 | 0.00 | 0.00 | 44 | 1012.5 |
| 20260505221536 | 56 | 96 | 0.0 | 9.6 | 0.00 | 0.00 | 0.00 | 42 | 1012.6 |
| 20260505220036 | 58 | 0 | 0.0 | 7.0 | 0.00 | 0.00 | 0.00 | 40 | 1012.5 |
| 20260505214601 | 58 | 0 | 0.0 | 7.8 | 0.00 | 0.00 | 0.00 | 43 | 1012.5 |
| 20260505213046 | 56 | 0 | 0.9 | 10.4 | 0.00 | 0.00 | 0.00 | 44 | 1013.0 |
| 20260505211535 | 58 | 0 | 0.0 | 7.0 | 0.00 | 0.00 | 0.00 | 43 | 1013.3 |
| 20260505210035 | 56 | 0 | 0.0 | 7.8 | 0.00 | 0.00 | 0.00 | 45 | 1013.4 |
| 20260505204554 | 56 | 0 | 0.9 | 6.1 | 0.00 | 0.00 | 0.00 | 46 | 1013.7 |
| 20260505203038 | 54 | 0 | 0.0 | 7.8 | 0.00 | 0.00 | 0.00 | 48 | 1014.0 |
| 20260505201538 | 55 | 0 | 0.9 | 8.7 | 0.00 | 0.00 | 0.00 | 47 | 1014.2 |
| 20260505200041 | 55 | 96 | 0.9 | 7.8 | 0.00 | 0.00 | 0.00 | 48 | 1014.2 |
| 20260505194544 | 54 | 0 | 0.0 | 7.8 | 0.00 | 0.00 | 0.00 | 49 | 1014.1 |
| 20260505193036 | 55 | 0 | 0.9 | 10.4 | 0.00 | 0.00 | 0.00 | 47 | 1014.0 |
| 20260505191540 | 56 | 0 | 0.0 | 7.8 | 0.00 | 0.00 | 0.00 | 45 | 1014.0 |
| 20260505190039 | 53 | 0 | 0.0 | 7.0 | 0.00 | 0.00 | 0.00 | 46 | 1014.1 |
| 20260505184535 | 56 | 95 | 0.9 | 7.8 | 0.00 | 0.00 | 0.00 | 39 | 1013.7 |
| 20260505183036 | 56 | 0 | 0.9 | 7.0 | 0.00 | 0.00 | 0.00 | 39 | 1014.1 |
| 20260505181534 | 56 | 0 | 0.9 | 7.8 | 0.00 | 0.00 | 0.00 | 39 | 1013.9 |
| 20260505174556 | 53 | 0 | 0.0 | 3.5 | 0.00 | 0.00 | 0.00 | 40 | 1014.5 |
| 20260505173044 | 54 | 0 | 0.0 | 5.2 | 0.00 | 0.00 | 0.00 | 41 | 1014.4 |
| 20260505171535 | 54 | 0 | 0.0 | 5.2 | 0.00 | 0.00 | 0.00 | 41 | 1014.4 |
| 20260505170042 | 52 | 0 | 0.0 | 6.1 | 0.00 | 0.00 | 0.00 | 43 | 1014.6 |
| 20260505164536 | 51 | 0 | 0.0 | 2.6 | 0.00 | 0.00 | 0.00 | 42 | 1014.9 |
| 20260505163035 | 51 | 0 | 0.0 | 1.7 | 0.00 | 0.00 | 0.00 | 44 | 1014.9 |
| 20260505161538 | 50 | 0 | 0.0 | 0.0 | 0.00 | 0.00 | 0.00 | 45 | 1014.9 |
| 20260505153036 | 50 | 0 | 0.0 | 0.0 | 0.00 | 0.00 | 0.00 | 45 | 1015.1 |
| 20260505151535 | 50 | 0 | 0.0 | 6.1 | 0.00 | 0.00 | 0.00 | 46 | 1015.1 |
| 20260505124538 | 47 | 0 | 0.0 | 0.0 | 0.00 | 0.00 | 0.00 | 44 | 1015.4 |
| 20260505123035 | 46 | 0 | 0.0 | 0.0 | 0.00 | 0.00 | 0.00 | 45 | 1015.4 |
| 20260505121540 | 46 | 0 | 0.0 | 0.0 | 0.00 | 0.00 | 0.00 | 44 | 1015.0 |
| 20260505120038 | 45 | 0 | 0.0 | 0.0 | 0.00 | 0.00 | 0.00 | 45 | 1014.8 |
| 20260505114537 | 45 | 0 | 0.0 | 0.0 | 0.00 | 0.00 | 0.00 | 45 | 1015.1 |
| 20260505113033 | 45 | 0 | 0.0 | 0.0 | 0.00 | 0.00 | 0.00 | 44 | 1015.2 |
| 20260505111539 | 46 | 0 | 0.0 | 0.0 | 0.00 | 0.00 | 0.00 | 43 | 1015.1 |
| 20260505101539 | 49 | 0 | 0.0 | 0.0 | 0.00 | 0.00 | 0.00 | 39 | 1014.9 |
| 20260505100038 | 49 | 0 | 0.0 | 0.0 | 0.00 | 0.00 | 0.00 | 39 | 1014.8 |
| 20260505094534 | 49 | 0 | 0.0 | 0.0 | 0.00 | 0.00 | 0.00 | 39 | 1014.9 |
| 20260505093038 | 50 | 0 | 0.0 | 0.0 | 0.00 | 0.00 | 0.00 | 38 | 1014.8 |
| 20260505091543 | 50 | 0 | 0.0 | 1.7 | 0.00 | 0.00 | 0.00 | 37 | 1014.7 |
| 20260505090035 | 49 | 0 | 0.0 | 0.0 | 0.00 | 0.00 | 0.00 | 36 | 1014.9 |
| 20260505084536 | 50 | 0 | 0.0 | 0.0 | 0.00 | 0.00 | 0.00 | 36 | 1015.2 |
| 20260505083035 | 51 | 0 | 0.0 | 0.0 | 0.00 | 0.00 | 0.00 | 34 | 1015.4 |
| 20260505081539 | 51 | 0 | 0.0 | 0.0 | 0.00 | 0.00 | 0.00 | 34 | 1016.0 |
| 20260505080036 | 52 | 0 | 0.0 | 0.0 | 0.00 | 0.00 | 0.00 | 33 | 1015.7 |
| 20260505074537 | 52 | 0 | 0.0 | 0.0 | 0.00 | 0.00 | 0.00 | 32 | 1015.9 |
| 20260505073035 | 53 | 0 | 0.0 | 7.0 | 0.00 | 0.00 | 0.00 | 32 | 1015.6 |
| 20260505071550 | 53 | 0 | 0.0 | 0.0 | 0.00 | 0.00 | 0.00 | 32 | 1015.3 |
| 20260505070046 | 54 | 0 | 0.0 | 0.0 | 0.00 | 0.00 | 0.00 | 31 | 1015.6 |
| 20260505064536 | 54 | 0 | 0.0 | 0.0 | 0.00 | 0.00 | 0.00 | 32 | 1015.6 |
| 20260505063039 | 55 | 0 | 0.0 | 0.0 | 0.00 | 0.00 | 0.00 | 32 | 1015.5 |
| 20260505061606 | 55 | 0 | 0.0 | 0.0 | 0.00 | 0.00 | 0.00 | 31 | 1015.6 |
| 20260505060039 | 55 | 0 | 0.0 | 0.0 | 0.00 | 0.00 | 0.00 | 31 | 1015.7 |
| 20260505054538 | 55 | 0 | 0.0 | 0.0 | 0.00 | 0.00 | 0.00 | 31 | 1015.5 |
| 20260505053041 | 55 | 0 | 0.0 | 0.0 | 0.00 | 0.00 | 0.00 | 32 | 1015.4 |
| 20260505051601 | 55 | 0 | 0.0 | 0.0 | 0.00 | 0.00 | 0.00 | 32 | 1015.4 |
| 20260505041535 | 56 | 0 | 0.0 | 0.0 | 0.00 | 0.00 | 0.00 | 29 | 1015.5 |
| 20260505040042 | 56 | 0 | 0.0 | 0.0 | 0.00 | 0.00 | 0.00 | 28 | 1015.7 |
| 20260505034535 | 56 | 0 | 0.0 | 0.0 | 0.00 | 0.00 | 0.00 | 27 | 1015.7 |
| 20260505033035 | 57 | 0 | 0.0 | 0.0 | 0.00 | 0.00 | 0.00 | 26 | 1015.5 |
| 20260505031534 | 57 | 0 | 0.0 | 0.0 | 0.00 | 0.00 | 0.00 | 25 | 1015.2 |
| 20260505030035 | 58 | 0 | 0.0 | 0.0 | 0.00 | 0.00 | 0.00 | 23 | 1015.0 |
| 20260505024544 | 58 | 0 | 0.0 | 0.0 | 0.00 | 0.00 | 0.00 | 22 | 1014.9 |
| 20260505023037 | 59 | 0 | 0.0 | 2.6 | 0.00 | 0.00 | 0.00 | 22 | 1014.7 |
| 20260505021536 | 60 | 0 | 0.0 | 0.0 | 0.00 | 0.00 | 0.00 | 20 | 1014.6 |
| 20260505020035 | 60 | 0 | 0.0 | 3.5 | 0.00 | 0.00 | 0.00 | 20 | 1014.6 |
| 20260505014542 | 61 | 0 | 0.0 | 5.2 | 0.00 | 0.00 | 0.00 | 19 | 1014.4 |
| 20260505013040 | 61 | 0 | 0.0 | 7.0 | 0.00 | 0.00 | 0.00 | 18 | 1014.1 |
| 20260505011538 | 62 | 0 | 0.0 | 7.8 | 0.00 | 0.00 | 0.00 | 18 | 1014.0 |
| 20260505010037 | 62 | 95 | 0.0 | 8.7 | 0.00 | 0.00 | 0.00 | 17 | 1014.0 |